Regional Weather Roundup
Issued by NWS Cleveland, OH

Home | Current Version | Previous Version | Graphics & Text | Print | Product List | Glossary On
Versions: 1 2 3 4 5 6 7 8 9 10 11 12 13 14 15 16 17 18 19 20 21 22 23 24 25 26 27 28 29 30 31 32 33 34 35 36 37 38 39 40 41 42 43 44 45 46 47 48 49 50
000
ASUS41 KCLE 040400
RWRCLE
OHIO REGIONAL WEATHER ROUNDUP
NATIONAL WEATHER SERVICE WILMINGTON, OH
1200 AM EDT WED MAY 04 2016

NOTE: "FAIR" INDICATES FEW OR NO CLOUDS BELOW 12,000 FEET WITH NO
SIGNIFICANT WEATHER AND/OR OBSTRUCTIONS TO VISIBILITY.

OHZ001>008-015>018-024>027-034-035-043-044-040500-
   NORTHWEST OHIO

CITY           SKY/WX    TMP DP  RH WIND       PRES   REMARKS
DEFIANCE       CLOUDY    52  44  74 S6        29.78F
FINDLAY        FAIR      49  42  77 S7        29.79F
TOLEDO EXPRESS FAIR      50  42  74 S7        29.77F
TOLEDO EXEC    FAIR      51  43  74 SW7       29.78F
LIMA           FAIR      49  43  80 S7        29.80F
$$

OHZ009>014-019>023-028>033-038-089-040500-
   NORTHEAST OHIO

CITY           SKY/WX    TMP DP  RH WIND       PRES   REMARKS
CLE-HOPKINS    FAIR      46  39  76 CALM      29.82F
CLE-LAKEFRONT  FAIR      52  38  58 S7        29.79F
CUY CO. ARPT   NOT AVBL
LORAIN-ELYRIA  FAIR      47  39  74 CALM      29.80F
ASHTABULA      FAIR      41  39  93 SW3       29.81F
AKRON-CANTON   MOCLDY    51  41  68 CALM      29.80F
WOOSTER        NOT AVBL
MANSFIELD      MOCLDY    50  44  80 S3        29.81F
YOUNGSTOWN     FAIR      44  39  82 CALM      29.80F
$$

OHZ042-051>053-060>062-070>072-077>081-040500-
  SOUTHWEST OHIO

CITY           SKY/WX    TMP DP  RH WIND       PRES   REMARKS
CINC-COVINGTON FAIR      50  49  96 SW3       29.85F
CINC-LUNKEN    FAIR      52  51  97 S5        29.86F
HAMILTON       FAIR      49  48  97 CALM      29.85F
DAYTON         NOT AVBL
WRIGHT-PAT AFB FAIR      50  48  93 SW3       29.82F
DAYTON GENERAL FAIR      51  45  79 CALM      29.83F
WILMINGTON     CLOUDY    52  48  86 W3        29.83F
$$

OHZ036-037-039>041-045>050-054>059-063>069-073>076-082>088-040500-
  CENTRAL AND SOUTHEAST OHIO

CITY           SKY/WX    TMP DP  RH WIND       PRES   REMARKS
COLUMBUS       MOCLDY    53  46  77 SW3       29.82F
OSU AIRPORT    MOCLDY    52  46  80 W5        29.82F
BOLTON FIELD   NOT AVBL
RICKENBACK AFB NOT AVBL
NEWARK         CLOUDY    53  48  83 SW3       29.81F
MARION         FAIR      50  43  77 SW6       29.82F
LANCASTER      CLOUDY    53  48  83 CALM      29.83F
ZANESVILLE     CLOUDY    54  49  83 CALM      29.81F
NEW PHILLY     CLOUDY    54  45  71 CALM      29.81F
$$




USA.gov is the U.S. government's official web portal to all federal, state and local government web resources and services.